sat.trackr.live / text

‹ back to catalog

STARLINK-37225

NORAD 68714 · 2026-081R

PAYLOAD ACTIVE UNKNOWN

§ Identity

Operator
Country
US
Launch date
2026-04-14
Launch site
AFETR
Launch vehicle
Mass (kg)
RCS (m²)

Purposes: comms

External: N2YO · Heavens-Above · Gunter

§ Orbital elements

Epoch: 2026-05-25T00:34:21.159264Z

Period
92.94 min
Inclination
53.1604°
Eccentricity
0.0000427
Mean motion
15.49328640 rev/d
Perigee alt
418.4 km
Apogee alt
419.0 km
Semi-major
6,796.8 km
B*
3.2632e-4
RAAN
39.9802°
Arg perigee
95.3859°
Mean anomaly
264.7199°
Rev number
642

§ Raw data

STARLINK-372251 68714U 26081R   26145.02385601  .00017755  00000+0  32632-3 0  99992 68714  53.1604  39.9802 0000427  95.3859 264.7199 15.49328640  6422

JSON: /api/v1/satellites/68714 · /tle

For live sub-satellite position, see the globe view (requires WebGL).

§ Visibility from observer

Set your observer location to see the next 7 days of passes ≥ 10°. The values pass through the URL so the page stays shareable.

No JS? Fill the form by hand. The geolocation button needs JavaScript.